TimeMDT,TemperatureF,Dew PointF,Humidity,Sea Level PressureIn,VisibilityMPH,Wind Direction,Wind SpeedMPH,Gust SpeedMPH,PrecipitationIn,Events,Conditions,WindDirDegrees,DateUTC
12:53 AM,63.0,52.0,67,29.80,10.0,South,15.0,-,N/A,,Clear,170,2013-06-19 06:53:00
1:53 AM,61.0,54.0,78,29.81,10.0,South,15.0,-,N/A,,Clear,170,2013-06-19 07:53:00
2:53 AM,59.0,52.0,78,29.79,10.0,SSW,12.7,-,N/A,,Clear,200,2013-06-19 08:53:00
3:53 AM,59.0,51.1,75,29.80,10.0,SSW,12.7,-,N/A,,Clear,200,2013-06-19 09:53:00
4:53 AM,59.0,48.0,67,29.80,10.0,SSW,11.5,-,N/A,,Clear,200,2013-06-19 10:53:00
5:53 AM,60.1,48.0,64,29.81,10.0,SW,13.8,-,N/A,,Clear,220,2013-06-19 11:53:00
6:53 AM,63.0,51.1,65,29.81,10.0,SSW,9.2,-,N/A,,Clear,210,2013-06-19 12:53:00
7:53 AM,68.0,53.1,59,29.83,10.0,SSW,15.0,-,N/A,,Clear,210,2013-06-19 13:53:00
8:53 AM,72.0,52.0,49,29.84,10.0,SW,17.3,-,N/A,,Clear,230,2013-06-19 14:53:00
9:53 AM,75.9,48.0,37,29.83,10.0,SSW,12.7,-,N/A,,Clear,210,2013-06-19 15:53:00
10:53 AM,80.1,32.0,17,29.81,10.0,SW,12.7,21.9,N/A,,Clear,230,2013-06-19 16:53:00
11:53 AM,84.0,36.0,18,29.79,10.0,SSW,16.1,29.9,N/A,,Clear,210,2013-06-19 17:53:00
12:53 PM,86.0,28.9,13,29.78,10.0,SW,21.9,36.8,N/A,,Clear,230,2013-06-19 18:53:00
1:53 PM,87.1,21.0,9,29.76,10.0,West,24.2,36.8,N/A,,Clear,260,2013-06-19 19:53:00
2:53 PM,88.0,16.0,7,29.75,10.0,WSW,19.6,42.6,N/A,,Clear,250,2013-06-19 20:53:00
3:53 PM,88.0,16.0,7,29.72,10.0,WSW,21.9,32.2,N/A,,Clear,240,2013-06-19 21:53:00
4:53 PM,88.0,16.0,7,29.70,10.0,West,16.1,29.9,N/A,,Clear,280,2013-06-19 22:53:00
5:53 PM,88.0,16.0,7,29.68,10.0,SW,25.3,33.4,N/A,,Clear,230,2013-06-19 23:53:00
6:53 PM,84.9,18.0,8,29.68,10.0,SW,19.6,28.8,N/A,,Clear,230,2013-06-20 00:53:00
7:53 PM,82.9,17.1,9,29.68,10.0,SW,16.1,-,N/A,,Clear,230,2013-06-20 01:53:00
8:53 PM,73.0,18.0,12,29.73,10.0,SSW,13.8,-,N/A,,Clear,200,2013-06-20 02:53:00
9:27 PM,71.6,48.2,43,30.08,6.0,SSE,19.6,26.5,N/A,,Haze,160,2013-06-20 03:27:00
9:51 PM,68.0,51.8,56,30.09,9.0,South,23.0,32.2,N/A,,Scattered Clouds,170,2013-06-20 03:51:00
9:53 PM,68.0,53.1,59,29.76,10.0,South,20.7,32.2,N/A,,Partly Cloudy,170,2013-06-20 03:53:00
10:53 PM,64.9,53.1,65,29.78,10.0,South,26.5,34.5,N/A,,Clear,170,2013-06-20 04:53:00
11:53 PM,64.0,53.1,67,29.78,10.0,South,27.6,36.8,N/A,,Clear,170,2013-06-20 05:53:00